Regional Weather Roundup
Issued by NWS

Home | Current Version | Previous Version | Graphics & Text | Print | Product List | Glossary On
Versions: 1 2 3 4 5 6 7 8 9 10 11 12 13 14 15 16 17 18 19 20 21 22 23 24 25 26 27 28 29 30 31 32 33 34 35 36 37 38 39 40 41 42 43 44 45 46 47 48 49 50
542
ASUS45 KSLC 231410
RWRUT

UTAH REGIONAL WEATHER ROUNDUP
NATIONAL WEATHER SERVICE SALT LAKE CITY UT
800 AM MDT MON OCT 23 2017

UTZ001>011-023>025-231500-

NORTHERN UTAH

CITY           SKY/WX    TMP DP  RH WIND       PRES   REMARKS
BRIGHAM CITY   CLEAR     52  33  47 N12       30.54R
DUGWAY         PTCLDY    39  26  58 W5        30.53R
HILL AFB       PTCLDY    46  37  72 E3        30.53R
LOGAN          CLEAR     46  37  71 N12       30.53R
OGDEN          CLEAR     47  38  71 NW6       30.52R
SALT LAKE CITY MOCLDY    48  40  73 CALM      30.54R
TOOELE VALLEY  PTCLDY    37  34  87 S3        30.54R
WENDOVER       PTCLDY    46  36  68 CALM      30.55R
WEST JORDAN    CLEAR     47  40  76 W6        30.55R

$$

UTZ011>015-024>027-231500-

CENTRAL/NORTHEAST UTAH

CITY           SKY/WX    TMP DP  RH WIND       PRES   REMARKS
PROVO AIRPORT  MOCLDY    41  31  67 SE7       30.53R
MOAB/CANYONLAN PTCLDY    36  19  50 W6        30.45R WCI  31
DELTA          PTCLDY    36  23  60 S3        30.53R
PRICE          PTCLDY    45  22  40 NW3       30.50R
RICHFIELD      CLEAR     32  25  74 CALM      30.57R
ROOSEVELT      CLOUDY    34  27  75 SW3       30.47S
VERNAL         CLOUDY    37  27  67 CALM      30.45R

$$

UTZ013>016-019>022-027-231500-

SOUTHERN UTAH

CITY           SKY/WX    TMP DP  RH WIND       PRES   REMARKS
BRYCE CANYON   PTCLDY    33  15  47 NE6       30.56S WCI  28
CEDAR CITY     PTCLDY    34  20  56 NW5       30.49S WCI  30
MILFORD        PTCLDY    33  18  53 CALM      30.52R
ST GEORGE      SUNNY     49  24  37 VRB5      30.38R
HANKSVILLE     MOCLDY    34  19  55 CALM      30.48S
KANAB          CLEAR     36  19  51 E6        30.48R WCI  31
BLANDING         N/A     42  20  41 CALM      30.51S

$$

REGIONAL REPORTS     COLORADO/ARIZONA

CITY           SKY/WX    TMP DP  RH WIND       PRES   REMARKS
CRAIG, CO      CLOUDY    40  29  64 CALM      30.48R
GRAND JUNCTION CLOUDY    36  24  62 E5        30.47R WCI  32
RIFLE, CO      CLOUDY    33  30  88 SW6       30.49R WCI  28
MONTROSE, CO   CLOUDY    33  23  66 SE5       30.50S WCI  29
CORTEZ, CO     CLOUDY    31  21  66 NE9       30.44S WCI  23
COLORADO CITY    N/A     34  23  64 CALM      30.46R
PAGE, AZ       PTCLDY    47  28  47 CALM      30.41R
GRAND CANYON   MOCLDY    27  13  55 CALM      30.49F
KINGMAN, AZ    PTCLDY    52  24  33 E8        30.32S
FLAGSTAFF, AZ  PTCLDY    26  14  60 CALM      30.51R

$$

REGIONAL REPORTS    NEVADA/IDAHO/WYOMING

CITY           SKY/WX    TMP DP  RH WIND       PRES   REMARKS
LAS VEGAS, NV  CLEAR     65  27  23 VRB3      30.28R
ELY, NY        PTCLDY    31  18  58 S10       30.58R WCI  22
ELKO, NV       CLEAR     34  28  79 CALM      30.58R
POCATELLO, ID  CLOUDY    43  41  93 SW10      30.57R
BURLEY, ID     CLEAR     44  41  89 SW10      30.54R
FORT BRIDGER,    N/A     41  32  71 SW13      30.56R
EVANSTON, WY   CLOUDY    40  32  73 W15       30.55R WCI  32
ROCK SPRINGS,  CLEAR     41  29  62 W8        30.49R
KEMMERER, WY   CLOUDY    37  30  75 N6        30.52S WCI  33

$$




USA.gov is the U.S. government's official web portal to all federal, state and local government web resources and services.